This is the latest recevied weather packets stored in our database for station/object N0HOT. If no packets are shown the sender has not sent any weather packets the latest 10 day(s).
| Time | Temp. | Humidity | Pressure | Rain* | Wind** | Luminosity | Snow |
|---|---|---|---|---|---|---|---|
| 1788217345 | 30.56° C | 63% | 1011.1 hPa | 0 mm | - | 51 W/m² | - |
| 1788217044 | 30.56° C | 64% | 1010.8 hPa | 0 mm | - | 54 W/m² | - |
| 1788216740 | 30.56° C | 65% | 1010.5 hPa | 0 mm | - | 57 W/m² | - |
| 1788216434 | 30.56° C | 65% | 1011.1 hPa | 0 mm | - | 66 W/m² | - |
| 1788216130 | 30.56° C | 65% | 1010.8 hPa | 0 mm | - | 53 W/m² | - |
| 1788215825 | 30.56° C | 65% | 1010.8 hPa | 0 mm | - | 59 W/m² | - |
| 1788215522 | 30.56° C | 65% | 1010.5 hPa | 0 mm | - | 65 W/m² | - |
| 1788215218 | 30.56° C | 64% | 1010.5 hPa | 0 mm | - | 59 W/m² | - |
| 1788214913 | 30.56° C | 64% | 1010.8 hPa | 0 mm | - | 57 W/m² | - |
| 1788214608 | 30.56° C | 64% | 1010.5 hPa | 0 mm | - | 78 W/m² | - |
| 1788214303 | 30.56° C | 65% | 1010.5 hPa | 0 mm | - | 66 W/m² | - |
| 1788213998 | 30.56° C | 64% | 1010.8 hPa | 0 mm | - | 65 W/m² | - |
| 1788213693 | 30.56° C | 64% | 1010.8 hPa | 0 mm | - | 85 W/m² | - |
| 1788213389 | 30.56° C | 64% | 1010.5 hPa | 0 mm | - | 151 W/m² | - |
| 1788213084 | 30.56° C | 66% | 1010.5 hPa | 0 mm | - | 175 W/m² | - |
| 1788212782 | 30.56° C | 69% | 1010.5 hPa | 0 mm | - | 211 W/m² | - |
| 1788212478 | 30.56° C | 66% | 1010.1 hPa | 0 mm | - | 118 W/m² | - |
| 1788212175 | 30.56° C | 66% | 1010.5 hPa | 0 mm | - | 116 W/m² | - |
| 1788211869 | 30.56° C | 66% | 1010.5 hPa | 0 mm | - | 93 W/m² | - |
| 1788211566 | 30.56° C | 62% | 1010.1 hPa | 0 mm | - | 162 W/m² | - |
| 1788211261 | 30.56° C | 63% | 1010.5 hPa | 0 mm | - | 276 W/m² | - |
| 1788210961 | 30.56° C | 64% | 1010.8 hPa | 0 mm | - | 338 W/m² | - |
| 1788210661 | 30° C | 66% | 1010.5 hPa | 0 mm | - | 198 W/m² | - |
| 1788210355 | 30° C | 65% | 1010.5 hPa | 0 mm | - | 271 W/m² | - |
| 1788210052 | 30° C | 66% | 1010.8 hPa | 0 mm | - | 224 W/m² | - |
* Rain latest hour (hover to see other rain measurements)
** Current wind speed in m/s (hover to see current wind gust speed)